Date String (YYYY-MM-DD hh:mm:ss) UTC,Instrument flags,absolute air pressure of the measurement (hPa),sample flow rate (lpm),inlet stack bypass flow (lpm),air temperature of the measurement (°C),ambient temperature measured by the external sensor (°C),aerosol sample conditioner tube jacket temperature (°C),OPC LED temperature (°C),internal box temperature (°C),relative humidity of the measurement (%),span deviation,mass concentration of particles derived from Lorenz-Mie calculation of OPC scattering (μg/m³),mass concentration of particles derived from Lorenz-Mie calculation of OPC scattering (μg/m³),mass concentration of particles derived from Lorenz-Mie calculation of OPC scattering (μg/m³)
DateTimeUTC,F1_M11,P_M11,Q1_M11,Q2_M11,T1_M11,T2_M11,T3_M11,T4_M11,T5_M11,U1_M11,ZSPAN_M11,X0_M11,X2_M11,X1_M11
2023-09-11 10:00:00,SystemResetWarning,0836.0,5.00,000.00,029.0,027.6,000.0,037.4,030.6,30.9,-000.1,0006.61,0004.22,0003.96
2023-09-11 10:01:00,SystemResetWarning,0836.0,5.00,000.00,029.0,027.6,000.0,037.4,030.6,30.8,-000.1,0006.65,0004.21,0003.93
2023-09-11 10:02:00,SystemResetWarning,0836.0,5.00,000.00,029.0,027.6,000.0,037.4,030.5,30.8,0000.6,0006.61,0004.17,0003.91
2023-09-11 10:03:00,SystemResetWarning,0835.9,5.00,000.00,029.0,027.6,000.0,037.4,030.5,30.7,0000.9,0006.58,0004.16,0003.89
2023-09-11 10:04:00,SystemResetWarning,0835.9,5.00,000.00,029.0,027.6,000.0,037.4,030.5,30.5,0000.8,0006.43,0004.12,0003.87
2023-09-11 10:05:00,SystemResetWarning,0835.9,5.00,000.00,029.0,027.6,000.0,037.4,030.5,30.0,0000.9,0006.46,0004.11,0003.84
2023-09-11 10:06:00,SystemResetWarning,0835.9,5.00,000.00,029.0,027.6,000.0,037.4,030.5,29.8,0000.6,0006.40,0004.08,0003.83
2023-09-11 10:07:00,SystemResetWarning,0835.9,5.00,000.00,029.0,027.6,000.0,037.4,030.5,29.8,0000.3,0006.41,0004.09,0003.82
2023-09-11 10:08:00,SystemResetWarning,0835.9,5.00,000.00,029.0,027.6,000.0,037.4,030.5,29.6,-000.2,0006.46,0004.10,0003.82
2023-09-11 10:09:00,SystemResetWarning,0835.9,5.00,000.00,029.0,027.6,000.0,037.4,030.6,29.4,0000.1,0006.51,0004.11,0003.81
2023-09-11 10:10:00,SystemResetWarning,0835.9,5.00,000.00,029.0,027.6,000.0,037.4,030.6,29.5,-000.0,0006.55,0004.12,0003.81
2023-09-11 10:11:00,SystemResetWarning,0835.8,5.00,000.00,029.0,027.6,000.0,037.4,030.6,29.3,-000.7,0006.57,0004.12,0003.81
2023-09-11 10:12:00,SystemResetWarning,0835.9,5.00,000.00,029.1,027.6,000.0,037.4,030.7,28.5,-000.8,0006.55,0004.13,0003.82
2023-09-11 10:13:00,SystemResetWarning,0835.8,5.00,000.00,029.1,027.6,000.0,037.4,030.7,28.3,-001.1,0006.53,0004.15,0003.84
2023-09-11 10:14:00,SystemResetWarning,0835.8,5.00,000.00,029.1,027.6,000.0,037.4,030.7,28.2,-001.2,0006.55,0004.16,0003.85
2023-09-11 10:15:00,SystemResetWarning,0835.9,5.00,000.00,029.1,027.7,000.0,037.4,030.7,28.4,-001.1,0006.60,0004.17,0003.86
2023-09-11 10:16:00,SystemResetWarning,0835.9,5.00,000.00,029.1,027.7,000.0,037.4,030.7,29.1,-001.1,0006.44,0004.15,0003.86
2023-09-11 10:17:00,SystemResetWarning,0835.9,5.00,000.00,029.1,027.7,000.0,037.4,030.7,29.7,-000.9,0006.31,0004.13,0003.85
2023-09-11 10:18:00,SystemResetWarning,0835.9,5.00,000.00,029.1,027.7,000.0,037.4,030.7,30.1,-000.8,0006.32,0004.12,0003.85
2023-09-11 10:19:00,SystemResetWarning,0835.9,5.00,000.00,029.1,027.7,000.0,037.4,030.7,30.3,-000.7,0006.41,0004.14,0003.85
2023-09-11 10:20:00,SystemResetWarning,0835.9,5.00,000.00,029.1,027.6,000.0,037.5,030.7,30.3,-000.9,0006.46,0004.16,0003.86
2023-09-11 10:21:00,SystemResetWarning,0835.9,4.98,000.00,029.1,026.2,000.0,037.4,030.4,30.3,-001.4,0006.50,0004.16,0003.87
2023-09-11 10:22:00,SystemResetWarning,0835.8,5.00,000.00,029.0,024.8,000.0,037.3,030.2,30.5,-001.3,0006.40,0004.14,0003.86
2023-09-11 10:23:00,SystemResetWarning,0835.8,5.01,000.00,028.9,024.5,000.0,037.3,029.9,30.8,-001.5,0006.36,0004.12,0003.85
2023-09-11 10:24:00,SystemResetWarning,0835.8,5.01,000.00,028.7,024.8,000.0,037.2,029.7,31.2,-001.5,0006.29,0004.11,0003.85
2023-09-11 10:25:00,SystemResetWarning,0835.8,5.00,000.00,028.6,025.1,000.0,037.2,029.7,31.4,-001.9,0006.31,0004.11,0003.86
2023-09-11 10:26:00,SystemResetWarning,0835.8,5.00,000.00,028.6,025.5,000.0,037.2,029.7,31.5,-002.1,0006.29,0004.11,0003.86
2023-09-11 10:27:00,SystemResetWarning,0835.8,5.00,000.00,028.5,025.8,000.0,037.2,029.8,31.7,-001.9,0006.28,0004.11,0003.88
2023-09-11 10:28:00,SystemResetWarning,0835.8,5.00,000.00,028.5,026.0,000.0,037.1,029.8,31.9,-001.6,0006.31,0004.13,0003.89
2023-09-11 10:29:00,SystemResetWarning,0835.8,5.00,000.00,028.5,026.3,000.0,037.1,029.9,31.9,-001.5,0006.27,0004.14,0003.91
2023-09-11 10:30:00,SystemResetWarning,0835.8,5.00,000.00,028.5,026.5,000.0,037.1,029.9,31.7,-001.3,0006.16,0004.12,0003.90
2023-09-11 10:31:00,SystemResetWarning,0835.8,5.00,000.00,028.5,026.6,000.0,037.1,030.0,31.7,-001.9,0006.13,0004.11,0003.89
2023-09-11 10:32:00,SystemResetWarning,0835.9,5.00,000.00,028.5,026.8,000.0,037.0,030.1,31.4,-002.0,0006.14,0004.10,0003.88
2023-09-11 10:33:00,SystemResetWarning,0835.9,5.01,000.00,028.5,026.9,000.0,037.0,030.1,31.4,-001.8,0006.32,0004.13,0003.88
2023-09-11 10:34:00,SystemResetWarning,0835.9,5.00,000.00,028.6,027.0,000.0,037.0,030.2,31.3,-002.2,0006.34,0004.12,0003.86
2023-09-11 10:35:00,SystemResetWarning,0835.9,5.00,000.00,028.6,027.1,000.0,037.0,030.2,31.2,-002.2,0006.17,0004.07,0003.82
2023-09-11 10:36:00,SystemResetWarning,0835.9,5.00,000.00,028.6,027.1,000.0,037.0,030.2,31.1,-002.1,0006.03,0004.03,0003.79
2023-09-11 10:37:00,SystemResetWarning,0835.9,5.00,000.00,028.6,027.2,000.0,037.0,030.3,31.0,-001.8,0005.87,0003.98,0003.75
2023-09-11 10:38:00,SystemResetWarning,0835.9,4.99,000.00,028.6,027.3,000.0,037.0,030.3,31.1,-001.7,0005.87,0003.96,0003.72
2023-09-11 10:39:00,SystemResetWarning,0835.9,5.00,000.00,028.7,027.3,000.0,037.0,030.3,31.4,-001.9,0005.92,0003.93,0003.68
2023-09-11 10:40:00,SystemResetWarning,0835.9,4.99,000.00,028.7,027.4,000.0,037.0,030.4,31.3,-002.2,0005.91,0003.85,0003.60
2023-09-11 10:41:00,SystemResetWarning,0835.9,5.00,000.00,028.7,027.4,000.0,037.0,030.4,31.1,-002.3,0005.76,0003.78,0003.52
2023-09-11 10:42:00,SystemResetWarning,0835.9,5.01,000.00,028.7,027.4,000.0,037.0,030.4,31.1,-001.4,0005.45,0003.66,0003.43
2023-09-11 10:43:00,SystemResetWarning,0836.0,5.00,000.00,028.7,027.4,000.0,037.0,030.4,31.2,-000.6,0005.29,0003.59,0003.35
2023-09-11 10:44:00,SystemResetWarning,0836.0,5.00,000.00,028.8,027.5,000.0,037.0,030.5,31.2,-001.0,0005.04,0003.49,0003.26
2023-09-11 10:45:00,SystemResetWarning,0836.1,5.00,000.00,028.8,027.5,000.0,037.0,030.5,31.2,0000.1,0004.88,0003.42,0003.19
2023-09-11 10:46:00,SystemResetWarning,0836.1,5.00,000.00,028.8,027.5,000.0,037.1,030.5,31.3,0000.0,0004.94,0003.38,0003.13
2023-09-11 10:47:00,SystemResetWarning,0836.1,4.99,000.00,028.8,027.5,000.0,037.1,030.5,31.3,0000.0,0004.93,0003.31,0002.98
2023-09-11 10:48:00,SystemResetWarning,0836.1,4.99,000.00,028.8,027.5,000.0,037.1,030.5,31.3,0000.0,0004.80,0003.23,0002.81
2023-09-11 10:49:00,SystemResetWarning,0836.1,4.99,000.00,028.8,027.6,000.0,037.1,030.5,31.2,0000.0,0004.61,0003.14,0002.67
2023-09-11 10:50:00,SystemResetWarning,0836.2,5.00,000.00,028.9,027.6,000.0,037.1,030.6,31.1,0000.0,0004.38,0003.00,0002.51
2023-09-11 10:51:00,SystemResetWarning,0836.2,5.01,000.00,028.9,027.6,000.0,037.1,030.6,31.1,0000.0,0004.22,0002.91,0002.44
2023-09-11 10:52:00,SystemResetWarning,0836.2,5.00,000.00,028.9,027.6,000.0,037.1,030.6,31.2,0000.0,0004.28,0002.88,0002.43
2023-09-11 10:53:00,SystemResetWarning,0836.2,4.98,000.00,028.9,027.6,000.0,037.2,030.6,31.2,0000.0,0004.35,0002.94,0002.47
2023-09-11 10:54:00,SystemResetWarning,0836.1,5.00,000.00,028.9,027.6,000.0,037.2,030.6,31.2,0000.0,0004.40,0002.99,0002.54
2023-09-11 10:55:00,SystemResetWarning,0836.2,5.01,000.00,028.9,027.6,000.0,037.2,030.6,31.1,0000.0,0004.44,0003.08,0002.66
2023-09-11 10:56:00,SystemResetWarning,0836.2,5.01,000.00,028.9,027.6,000.0,037.2,030.6,31.1,0000.0,0004.46,0003.13,0002.75
2023-09-11 10:57:00,SystemResetWarning,0836.2,4.99,000.00,028.9,027.6,000.0,037.2,030.6,31.1,0000.0,0004.50,0003.16,0002.82
2023-09-11 10:58:00,SystemResetWarning,0836.2,4.99,000.00,029.0,027.6,000.0,037.2,030.6,31.0,0000.0,0004.50,0003.22,0002.96
2023-09-11 10:59:00,SystemResetWarning,0836.2,4.99,000.00,029.0,027.6,000.0,037.2,030.7,31.0,-000.2,0004.81,0003.33,0003.11
